User: anonymous   Login
Location: ??????
(55.6130°N, 37.7882°E)
Time: 18:04:17
(UTC+00:00)
Language:

Cosmos 1624 Rocket - Orbit

View from above orbital plane
View from above orbital plane
View from above satellite
View from above satellite

Ground track
Ground track

The orbit data is extracted from the following two-line orbital elements,

1 15483U 85006B   24165.94861648  .00000419  00000-0  14954-3 0  9994
2 15483  74.0463 346.6913 0017891  56.9775  59.3593 14.37068628 62966
Epoch (UTC): 13 June 2024 22:46:00
Eccentricity: 0.0017891
inclination: 74.0463°
perigee height: 755 km
apogee height: 781 km
right ascension of ascending node: 346.6913°
argument of perigee: 56.9775°
revolutions per day: 14.37068628
mean anomaly at epoch: 59.3593°
orbit number at epoch: 6296

The dashed part of the orbit path shows where the satellite is in the earth's shadow,  

DLR